Volver al catálogo

FENGYUN 1C DEB

ActivoPO
NORAD 31073·DEBRIS·🇨🇳 China

Lanzado May 10, 1999 desde Taiyuan Satellite Launch Center

Loading…

Próximos Pases (próximas 24 horas)

TLE

ActualizadoSource: Space-Track

Época: Sep 14, 2026, 02:34 UTC

1 31073U 99025BFT 26257.10716308  .00001600  00000-0  68306-3 0  9990
2 31073  99.1957 125.5736 0043114 215.5898 144.2403 14.26088413 10068

Sigue FENGYUN 1C DEB en tiempo real con AllMySat

Download on the App Store